Location: Alafon
(8.4500°N, 4.2333°E)
Time: 01:55:58
(UTC+00:00)

Vanguard 2 - Pass Details

Date: 08 August 2021
Orbit: 552 x 2937 km, 32.9° (Epoch: 21 September)

Event Time Altitude Azimuth Distance (km) Brightness Sun altitude
Rises 12:51:22 0° 251° (WSW) 5,200 11.9 73.0°
Reaches altitude 10° 12:57:12 10° 228° (SW) 4,712 11.8 71.7°
Maximum altitude 13:03:34 14° 200° (SSW) 4,802 11.8 70.2°
Drops below altitude 10° 13:10:55 10° 173° (S) 5,534 11.9 68.6°
Sets 13:19:20 0° 151° (SSE) 6,768 12.2 66.6°
